Weather History for Big Piney, WY

Change the Weather History Date:

Friday, February 15, 2013

  Actual Average Record
Temperature  
Mean Temperature 24 °F 14 °F  
Max Temperature 34 °F 29 °F 49 °F (1996)
Min Temperature 13 °F 0 °F -33 °F (1995)
Degree Days  
Heating Degree Days 41 51  
Month to date heating degree days 728 787  
Since 1 July heating degree days 6202 6900  
Cooling Degree Days 0 0  
Month to date cooling degree days 0 0  
Year to date cooling degree days 0 0  
Moisture  
Dew Point 14 °F    
Average Humidity 63    
Maximum Humidity 74    
Minimum Humidity 51    
Precipitation  
Precipitation 0.00 in 0.01 in 0.07 in (2004)
Month to date precipitation 0.09 0.18  
Year to date precipitation 0.16 0.49  
Sea Level Pressure  
Sea Level Pressure 30.40 in    
Wind  
Wind Speed 14 mph (North)    
Max Wind Speed 22 mph    
Max Gust Speed 26 mph    
Visibility 10 miles    
Events      
T = Trace of Precipitation, MM = Missing Value Source: NWS Daily Summary

Daily Weather History Graph

Daily Weather History Graph

Search for Another Location

Airport:

Trip Planner

Search our weather history database for the weather conditions in past years. The results will help you decide how hot, cold, wet, or windy it might be!

Date:

Astronomy

Feb. 15, 2013 Rise Set
Actual Time 7:16 AM MST 5:52 PM MST
Civil Twilight 6:47 AM MST 6:21 PM MST
Nautical Twilight 6:14 AM MST 6:54 PM MST
Astronomical Twilight 5:42 AM MST 7:27 PM MST
Moon 9:46 AM MST (2/15) No Moon Set
Length of Visible Light 11h 33m
Length of Day
10h 36m
Waxing Crescent, 31% of the Moon is Illuminated
Feb 15
Waxing Crescent
Feb 17
First Quarter
Feb 25
Full
Mar 4
Last Quarter
Mar 11
New

Hourly Weather History & Observations

Time (MST) Temp. Windchill Dew Point Humidity Pressure Visibility Wind Dir Wind Speed Gust Speed Precip Events Conditions
12:53 AM 21.0 °F 5.4 °F 14.0 °F 74% 30.32 in 10.0 mi NNW 20.7 mph - N/A   Clear
1:53 AM 19.9 °F 6.2 °F 12.9 °F 74% 30.33 in 10.0 mi NNW 15.0 mph - N/A   Clear
2:53 AM 21.0 °F 7.1 °F 12.9 °F 71% 30.33 in 10.0 mi NNW 16.1 mph - N/A   Clear
3:53 AM 21.0 °F 9.3 °F 12.9 °F 71% 30.33 in 10.0 mi North 11.5 mph - N/A   Partly Cloudy
4:53 AM 19.0 °F 5.0 °F 12.0 °F 74% 30.35 in 10.0 mi NNW 15.0 mph - N/A   Clear
5:53 AM 19.9 °F 4.8 °F 12.0 °F 71% 30.39 in 10.0 mi North 18.4 mph - N/A   Clear
6:53 AM 15.1 °F 1.8 °F 9.0 °F 77% 30.44 in 10.0 mi North 11.5 mph - N/A   Clear
7:53 AM 18.0 °F 4.8 °F 10.0 °F 71% 30.46 in 10.0 mi North 12.7 mph - N/A   Clear
8:53 AM 21.9 °F 11.7 °F 12.0 °F 66% 30.45 in 10.0 mi North 9.2 mph - N/A   Clear
9:53 AM 26.1 °F 16.8 °F 14.0 °F 60% 30.45 in 10.0 mi NNE 9.2 mph - N/A   Clear
10:53 AM 28.0 °F 17.5 °F 16.0 °F 61% 30.45 in 10.0 mi North 12.7 mph - N/A   Clear
11:53 AM 30.0 °F 21.7 °F 16.0 °F 56% 30.42 in 10.0 mi NE 9.2 mph - N/A   Clear
12:53 PM 32.0 °F 22.1 °F 17.1 °F 54% 30.39 in 10.0 mi North 13.8 mph - N/A   Clear
1:53 PM 33.1 °F 23.0 °F 17.1 °F 52% 30.37 in 10.0 mi North 15.0 mph - N/A   Clear
2:53 PM 33.1 °F 22.6 °F 17.1 °F 52% 30.37 in 10.0 mi NNW 16.1 mph - N/A   Clear
3:53 PM 32.0 °F 22.1 °F 17.1 °F 54% 30.37 in 10.0 mi NNW 13.8 mph - N/A   Clear
4:53 PM 30.9 °F 19.1 °F 17.1 °F 57% 30.38 in 10.0 mi NNW 18.4 mph - N/A   Clear
5:53 PM 26.1 °F 12.3 °F 15.1 °F 63% 30.40 in 10.0 mi NNW 19.6 mph - N/A   Clear
6:53 PM 24.1 °F 10.1 °F 14.0 °F 65% 30.43 in 10.0 mi North 18.4 mph - N/A   Clear
7:53 PM 26.1 °F 12.0 °F 14.0 °F 60% 30.40 in 10.0 mi North 20.7 mph - N/A   Clear
8:53 PM 21.9 °F 14.5 °F 12.0 °F 66% 30.42 in 10.0 mi WSW 5.8 mph - N/A   Clear
9:53 PM 19.0 °F 5.6 °F 10.9 °F 71% 30.41 in 10.0 mi NNE 13.8 mph - N/A   Clear
10:53 PM 18.0 °F 6.9 °F 10.9 °F 74% 30.42 in 10.0 mi NNW 9.2 mph - N/A   Clear
11:53 PM 21.0 °F 13.4 °F 12.0 °F 68% 30.40 in 10.0 mi NNW 5.8 mph - N/A   Clear